GFSMA_925_temp_057.txt.gz
Temp
25 24 24 24 24 23 24 23 24 25 25 24 24 24 24 24 24 23 23 22 21 21 20 20 20 20 19 19 19 19 19 19 19 19 20 20 20 20 19 19 19 19 19
24 24 24 24 25 25 24 24 24 23 25 25 25 25 25 24 24 24 23 22 22 21 21 21 21 20 20 20 20 20 19 20 20 20 20 20 19 19 19 19 19 19 19
24 24 25 25 25 25 25 26 24 24 25 25 25 25 25 25 25 24 24 23 22 22 22 21 21 21 21 21 21 21 20 20 20 20 20 20 19 19 19 19 19 19 19
24 24 25 25 25 25 25 26 26 26 25 26 26 26 25 25 25 25 24 24 23 23 22 22 22 21 21 21 20 20 20 20 20 20 20 20 20 20 20 19 19 19 19
25 25 24 24 25 26 26 26 26 26 26 26 26 26 26 25 25 25 24 24 24 23 23 23 22 22 22 21 21 21 20 20 20 20 20 20 20 20 20 20 19 19 19
25 24 25 24 25 25 25 25 26 26 26 27 26 26 26 26 26 25 25 24 24 24 24 23 23 23 22 22 22 21 21 21 21 20 21 21 20 20 20 20 19 19 20
25 25 25 24 25 25 25 26 26 26 26 26 26 26 27 26 26 26 26 25 25 25 24 24 24 23 23 23 22 22 22 22 21 21 21 21 21 21 21 20 20 20 20
25 25 25 24 25 25 25 25 25 26 26 27 26 25 23 26 27 27 27 26 26 25 25 24 24 24 23 23 23 23 23 23 23 22 22 22 21 21 21 21 21 21 21
25 25 25 25 25 25 25 25 26 26 26 27 27 26 22 23 24 27 27 27 27 26 25 25 25 25 24 24 23 23 23 24 24 23 23 23 23 22 22 22 22 21 21
26 25 25 25 25 25 25 25 25 26 26 26 27 27 27 27 23 22 26 27 27 27 26 25 26 25 25 25 24 24 24 24 24 24 24 24 23 23 23 22 22 22 21
26 25 25 24 25 25 25 25 25 25 25 25 26 26 27 27 26 25 22 26 27 27 27 27 27 26 26 25 25 25 25 25 25 25 25 25 24 24 23 23 23 22 22
26 25 25 25 25 24 25 25 25 25 26 26 26 27 27 27 27 26 23 24 26 28 27 28 27 27 27 26 26 26 26 25 25 25 25 25 24 24 24 23 23 23 23
26 26 25 25 25 25 24 25 25 25 25 26 26 26 26 26 27 27 27 26 25 28 27 28 28 28 27 27 27 27 27 26 26 26 25 25 25 24 24 24 24 23 23
26 26 26 25 25 25 24 24 25 25 25 25 25 26 27 27 27 27 28 27 23 25 27 29 28 28 28 28 28 27 27 27 27 26 26 25 25 25 24 24 24 23 23
27 26 26 26 25 25 25 24 25 25 25 25 25 26 27 27 27 27 28 28 27 22 22 28 28 29 29 28 28 28 28 27 27 27 26 25 25 25 24 24 24 23 23
28 27 26 26 25 25 25 25 25 25 25 25 25 25 26 27 27 26 27 28 28 27 22 27 28 28 28 28 28 28 28 28 27 27 27 26 26 26 25 25 24 24 24
27 28 26 26 25 25 25 25 25 25 25 25 25 25 25 26 26 26 26 26 27 28 26 28 28 28 28 28 28 28 28 28 28 27 27 27 27 27 27 26 25 26 25
27 26 27 26 26 25 25 25 25 25 25 25 25 25 25 25 26 26 26 26 26 26 26 26 27 28 27 27 28 28 28 28 28 28 28 28 27 27 27 27 27 26 26
27 27 26 26 26 26 26 25 25 25 25 25 25 26 26 26 25 26 26 26 26 26 26 25 26 26 26 27 27 28 28 28 28 27 27 27 27 27 27 26 26 26 26
27 27 26 26 26 26 26 25 25 25 25 25 25 25 26 26 26 26 26 26 26 26 26 26 26 26 26 27 26 26 27 27 27 27 27 27 26 26 26 26 26 26 26
26 26 26 26 26 26 26 25 25 25 25 25 26 26 25 26 26 26 26 26 25 25 25 25 25 25 25 25 26 26 26 25 25 26 25 25 25 25 25 25 25 25 25
25 26 25 25 25 25 25 25 25 25 25 25 25 25 26 26 26 26 26 26 26 25 25 25 25 24 25 25 26 25 24 24 22 25 24 24 24 25 24 24 24 25 25
24 24 24 24 25 25 25 25 25 25 25 25 25 25 25 25 26 26 26 26 26 26 26 26 25 25 24 26 26 25 25 24 24 25 24 24 24 24 24 24 25 24 24
24 24 24 24 24 24 25 25 25 25 25 26 26 26 26 25 25 25 26 26 26 26 26 26 26 26 26 26 25 25 24 23 23 24 24 23 24 24 24 25 23 23 23
24 24 24 24 24 24 25 25 25 26 26 26 26 26 26 26 26 26 26 26 26 25 26 26 25 25 26 25 25 24 23 23 22 23 24 23 23 23 23 23 23 24 22
25 24 24 24 24 24 24 25 25 25 25 25 26 26 26 26 26 26 25 26 25 26 27 26 26 25 25 25 25 25 25 23 23 22 24 23 22 22 22 23 23 22 21

GFSMA_925_temp_060.txt.gz
Temp
23 24 23 23 24 24 24 24 24 24 24 24 23 24 23 23 23 22 21 21 21 20 20 19 19 20 20 19 19 19 19 20 19 19 19 19 19 19 19 19 19 19 19
24 24 24 24 24 24 24 24 25 24 24 24 24 24 24 23 23 23 23 22 22 21 20 20 20 20 20 20 20 20 19 20 20 20 20 20 20 19 19 19 19 19 19
24 24 24 24 24 24 24 24 25 25 24 24 24 24 24 23 23 23 23 22 22 22 21 21 21 21 21 21 21 21 20 20 20 20 20 19 19 19 19 19 19 19 19
24 24 24 24 25 24 24 24 24 25 25 25 24 24 24 24 24 24 23 23 23 23 22 22 22 21 21 21 20 20 20 20 20 20 19 19 19 19 19 19 19 19 19
24 24 25 25 25 25 25 25 25 25 25 25 25 25 24 25 24 24 24 24 23 23 23 22 22 22 22 21 20 20 20 20 20 20 20 20 20 20 20 19 19 19 19
24 24 25 25 25 25 26 26 26 25 25 25 25 25 25 25 24 25 25 24 24 23 23 23 22 22 22 22 21 21 21 21 21 20 20 20 20 20 20 20 20 19 19
24 24 25 24 25 25 25 25 25 25 25 25 26 25 25 25 25 25 25 24 24 24 23 23 23 23 23 23 22 22 22 22 22 22 22 21 21 21 21 20 20 20 20
25 24 25 25 25 25 25 25 25 25 26 26 26 25 21 25 25 25 25 25 25 25 24 24 23 23 23 23 23 23 23 23 23 23 23 22 22 22 22 21 21 20 20
25 24 25 25 24 25 25 25 25 26 26 26 26 26 21 21 23 25 25 25 25 25 25 24 24 24 24 24 24 24 23 24 24 24 24 23 23 23 23 22 22 21 21
25 25 24 24 25 24 25 25 25 25 26 26 26 26 25 25 21 22 25 25 25 26 25 25 25 25 25 25 24 24 24 24 24 24 24 24 24 24 23 23 23 22 21
25 25 25 25 25 24 25 25 25 25 25 25 26 26 26 26 26 23 21 25 26 26 26 26 26 25 25 25 25 26 25 25 25 25 25 25 25 25 24 24 23 23 22
25 25 25 25 25 24 24 25 25 25 25 25 26 25 26 26 25 24 21 23 24 27 26 26 26 26 26 26 27 27 26 26 26 26 25 25 25 25 24 24 24 24 23
25 25 25 25 25 25 25 24 24 25 25 25 25 25 26 26 26 26 25 23 24 26 27 27 27 27 27 27 27 27 27 27 26 26 26 25 25 24 24 24 23 23 23
26 25 25 25 25 25 25 24 24 24 25 25 25 25 26 26 26 26 26 26 22 24 26 27 28 28 28 27 27 27 27 27 27 26 26 25 25 24 24 23 23 23 23
26 25 25 25 25 24 25 25 24 24 25 25 25 26 26 26 26 26 26 26 26 22 21 27 28 28 28 27 27 27 27 27 27 27 27 26 26 25 25 24 24 24 24
26 26 25 25 25 25 24 24 25 25 24 24 25 25 25 26 27 26 26 26 26 26 22 27 28 27 27 27 27 27 27 27 27 27 27 27 27 26 26 26 25 25 25
26 26 26 26 25 25 24 24 24 25 25 25 25 25 25 25 25 26 26 26 25 25 24 26 27 27 27 27 27 27 27 27 27 27 27 27 26 26 26 26 26 26 25
26 26 27 26 25 25 25 24 24 24 24 24 25 25 25 25 25 25 25 26 26 26 25 25 26 26 27 27 27 27 27 27 27 27 27 26 26 26 25 25 25 26 25
26 26 26 27 26 25 25 25 25 25 25 25 25 25 25 25 25 25 25 25 25 25 25 24 24 25 26 26 26 26 26 27 27 26 26 25 25 25 25 25 25 25 24
26 26 26 26 26 26 25 25 25 25 25 25 25 25 25 25 25 25 25 25 25 25 25 25 25 25 25 25 25 25 25 26 26 26 26 25 25 25 25 24 24 24 24
25 26 26 26 26 26 25 25 25 25 25 25 25 25 25 25 25 25 25 25 25 25 25 25 24 24 24 24 25 25 24 25 25 25 25 25 25 25 25 24 24 23 24
24 25 26 26 25 26 26 25 25 25 25 25 25 25 25 25 25 25 25 25 25 25 25 24 24 24 24 24 25 24 24 23 22 25 24 25 24 25 24 24 23 23 23
23 23 24 25 25 25 25 25 25 25 25 25 25 25 25 25 25 25 25 25 25 25 25 25 24 24 24 25 25 24 24 23 22 25 23 23 24 24 24 23 22 23 22
22 23 23 24 24 25 25 25 25 25 25 25 25 25 25 25 25 25 25 25 25 25 25 25 25 25 25 26 25 24 24 23 23 24 23 22 24 24 23 22 22 22 22
22 22 23 23 23 23 24 25 25 25 24 24 25 25 25 25 26 25 25 25 25 25 26 26 26 26 25 25 25 24 24 22 21 23 23 22 23 23 23 22 22 22 21
23 22 23 23 23 23 23 24 24 24 23 24 24 24 25 25 26 26 25 25 25 25 25 26 26 26 25 25 24 24 24 22 21 21 24 23 23 22 22 22 22 21 21

GFSMA_925_temp_063.txt.gz
Temp
23 23 23 23 23 24 23 23 23 23 23 23 23 23 23 23 22 21 21 21 21 20 20 20 20 20 20 20 20 20 20 19 19 19 19 19 19 19 19 19 19 19 19
23 23 23 23 24 24 24 23 24 24 23 23 23 23 23 23 22 22 21 21 21 21 20 20 20 20 19 19 20 19 19 19 19 20 19 19 19 19 19 19 19 19 19
24 23 24 23 24 24 25 24 24 24 23 23 23 23 23 23 23 22 22 22 21 21 20 20 20 20 20 19 19 20 20 20 20 19 19 19 19 19 19 19 19 19 19
24 24 24 24 24 24 24 24 24 24 24 24 24 24 23 23 23 23 22 22 22 21 21 21 21 21 21 20 20 20 20 20 19 19 19 19 19 19 19 19 19 19 19
24 24 24 24 24 24 24 25 25 25 24 24 23 23 23 23 23 23 23 23 23 22 22 22 21 21 21 21 20 20 20 20 20 20 19 20 20 19 19 19 19 19 19
24 24 24 24 24 24 24 24 25 25 25 24 24 24 24 23 23 23 23 23 23 23 23 22 22 22 22 22 21 21 21 20 20 20 20 20 20 20 20 20 19 19 20
24 24 24 24 24 24 24 25 25 24 25 24 24 24 24 24 24 24 24 24 24 24 23 23 23 22 22 22 22 22 22 22 21 21 21 21 21 21 21 21 20 20 20
24 24 25 25 24 24 24 25 25 25 25 25 25 24 21 24 24 24 24 24 24 24 24 24 23 23 23 23 23 22 22 23 23 23 23 23 23 22 22 21 21 21 21
24 24 24 24 24 25 25 25 25 25 26 25 25 24 20 20 21 24 25 25 25 24 24 24 24 24 24 24 23 23 23 23 23 24 24 24 24 23 23 22 22 21 21
24 24 24 24 24 24 24 25 25 25 26 26 25 24 25 24 21 21 25 25 25 25 25 25 25 25 24 25 25 24 24 24 24 24 24 24 24 24 24 23 23 22 22
24 24 24 24 24 24 24 24 25 25 25 26 25 25 25 25 24 22 21 24 25 26 26 26 25 25 25 25 25 25 25 25 25 25 24 24 24 24 24 23 23 23 22
24 24 24 24 25 24 24 24 25 25 25 25 25 26 26 25 24 23 20 22 23 26 27 27 26 26 26 26 26 26 26 26 26 25 25 25 24 24 24 23 23 23 22
24 24 24 24 24 24 24 24 25 25 25 25 25 25 25 25 25 25 24 22 22 25 27 27 27 27 27 27 27 27 26 26 26 26 26 25 25 24 24 24 24 23 23
25 25 24 24 24 24 24 24 25 25 24 25 25 25 25 25 25 25 25 25 21 23 25 26 27 27 27 27 27 27 27 27 27 27 27 26 26 25 24 24 24 24 24
25 25 25 25 24 24 24 24 24 24 24 25 25 25 25 25 25 25 25 25 25 21 21 27 27 27 27 27 27 27 27 27 27 26 26 26 26 25 25 25 25 24 24
25 25 25 25 24 24 24 24 24 24 24 24 25 25 25 25 25 25 25 25 25 25 21 26 26 26 27 27 26 26 26 26 26 26 26 26 26 26 25 25 25 25 25
25 24 25 25 25 24 24 24 24 24 24 24 24 24 24 25 25 25 25 25 25 25 23 25 25 26 26 26 26 26 26 26 26 26 26 26 26 25 24 24 25 25 25
25 25 25 25 25 25 25 24 24 24 24 24 24 24 24 24 24 24 25 25 25 24 24 23 25 25 25 26 26 26 26 26 26 26 26 25 25 24 24 24 24 24 24
25 25 25 25 25 25 25 25 24 24 24 24 24 24 24 24 24 24 25 25 25 25 24 23 24 24 25 25 25 25 25 26 26 26 26 25 25 24 24 23 23 23 24
25 25 25 25 25 26 25 25 25 24 24 24 24 24 24 24 24 25 25 25 25 25 24 24 24 24 24 24 24 24 25 25 25 25 26 25 24 24 23 23 23 23 23
26 26 25 25 25 25 25 25 25 25 25 24 24 24 24 24 25 24 24 24 24 24 24 24 23 24 24 24 24 24 24 24 25 25 25 25 25 25 23 23 23 23 23
25 25 25 25 25 25 25 26 26 25 25 25 24 24 24 24 24 25 24 24 24 24 24 24 24 23 24 24 24 24 24 22 22 24 23 25 25 24 23 22 22 22 22
23 23 25 25 25 25 25 25 25 25 25 25 25 25 25 25 25 24 24 24 24 24 24 24 23 24 24 24 24 24 24 22 22 24 22 23 25 23 22 22 22 22 22
23 23 22 23 24 24 25 26 26 25 25 25 25 25 25 25 25 24 24 24 24 24 25 25 24 24 25 25 24 24 23 23 23 24 23 22 24 22 21 21 21 21 21
22 22 22 22 22 23 23 25 25 24 24 24 25 25 25 25 25 25 24 24 24 25 25 25 25 25 25 25 24 24 23 22 21 23 23 22 23 22 21 21 21 20 21
22 22 21 22 23 22 23 23 24 24 23 23 23 24 24 25 25 25 24 24 24 25 25 25 25 25 25 25 24 24 24 22 21 21 24 22 23 22 22 20 20 20 20

GFSMA_925_temp_069.txt.gz
Temp
21 21 22 22 22 22 22 22 22 22 22 22 21 21 21 21 21 21 21 20 20 20 19 20 19 19 19 19 19 19 19 19 19 19 19 19 20 19 19 19 19 19 19
23 22 22 22 22 22 22 22 22 22 22 22 22 21 21 21 21 21 21 21 21 20 20 20 19 20 20 20 20 19 19 20 19 19 19 19 20 19 19 20 19 19 19
23 23 22 22 23 23 23 23 23 23 23 23 22 22 22 21 22 21 21 21 21 21 20 20 20 20 20 20 19 19 19 20 20 19 19 20 20 20 20 19 19 19 19
23 23 23 23 23 23 23 23 22 23 23 23 23 23 22 22 22 21 21 21 21 22 21 21 20 21 20 20 19 19 19 19 19 20 20 20 20 20 19 19 19 20 20
23 24 23 23 23 23 23 23 23 23 24 24 24 23 23 23 22 23 22 22 22 21 22 22 22 22 22 21 21 20 20 20 20 21 21 21 20 20 20 20 20 20 20
23 23 23 23 23 23 23 23 24 24 24 24 25 24 24 23 23 23 23 23 22 22 22 22 21 22 22 22 22 22 21 21 21 22 21 21 21 21 21 21 21 21 20
23 23 23 24 24 24 24 24 24 23 24 24 24 25 24 24 24 24 24 24 23 23 22 22 22 22 22 23 23 22 22 22 22 22 22 22 22 22 22 22 22 22 21
23 23 23 24 24 24 24 24 25 24 23 23 25 25 27 26 25 25 24 24 24 24 23 23 22 23 23 22 23 23 23 23 23 23 23 23 23 23 23 23 23 23 22
23 23 23 24 24 23 23 24 24 24 25 23 24 25 27 27 26 25 24 24 25 24 24 24 24 24 24 23 24 24 24 24 24 24 24 24 23 23 23 23 23 23 22
23 23 23 23 24 23 23 24 23 24 25 25 23 23 24 24 27 28 26 25 25 25 25 25 25 25 25 24 25 26 25 25 25 25 25 24 24 24 24 23 23 23 22
24 23 23 23 23 23 24 24 24 25 24 24 25 24 23 24 23 26 28 27 26 26 25 26 26 26 26 26 26 26 26 26 26 25 25 25 25 25 25 24 24 24 23
24 24 24 24 24 23 24 23 24 24 24 24 24 24 25 25 26 26 27 26 26 27 26 26 26 26 27 27 26 27 27 26 26 26 25 25 25 25 25 25 24 24 23
23 24 24 24 24 24 23 24 24 24 24 24 24 24 24 24 24 24 25 27 27 27 26 26 26 26 26 27 26 26 26 26 26 26 26 26 26 26 25 25 24 24 23
24 24 24 24 24 24 23 24 23 23 24 24 24 24 24 24 24 24 25 26 28 27 26 25 26 26 25 26 26 26 25 26 26 25 26 26 25 25 24 24 24 24 24
24 24 25 24 24 24 24 24 23 23 24 23 23 24 24 24 24 24 24 24 26 28 29 27 27 26 25 25 25 25 25 25 25 26 26 26 24 24 24 24 24 24 24
25 24 24 24 24 24 24 24 23 23 24 23 23 23 23 24 24 23 24 24 24 26 28 26 26 25 25 25 25 25 25 25 25 26 26 25 24 24 24 24 24 24 24
25 25 25 24 24 24 23 24 23 23 23 23 23 23 23 22 24 24 24 24 24 24 26 27 24 24 25 24 25 25 25 25 26 25 25 25 24 24 24 24 24 23 23
25 25 25 24 23 24 23 23 24 23 22 23 23 22 23 23 22 23 23 23 24 23 24 25 25 25 24 24 24 24 25 25 25 26 26 25 24 24 24 24 23 23 23
24 24 25 24 24 24 24 25 24 24 23 23 23 23 23 23 23 24 23 24 24 23 23 24 25 25 24 24 24 25 24 24 25 25 26 25 24 24 24 23 23 23 23
24 23 24 25 24 24 24 24 24 23 23 23 23 23 23 23 23 23 23 23 23 23 24 24 25 25 25 24 24 25 25 26 25 25 26 25 24 24 23 22 22 22 22
24 25 23 23 24 24 24 23 23 23 23 23 23 23 23 23 24 24 24 24 23 23 25 25 25 26 26 26 26 25 25 25 25 24 25 26 25 24 22 22 22 22 22
23 23 22 23 23 24 25 25 25 24 23 23 23 23 23 24 25 24 24 24 23 23 23 24 25 26 24 24 25 25 25 25 26 26 23 25 25 24 22 21 21 21 21
22 22 22 22 23 23 24 25 26 25 24 23 23 23 24 25 24 24 24 25 24 24 23 23 23 24 24 24 24 23 24 24 24 25 24 25 25 24 22 23 21 21 21
21 22 22 22 22 23 24 25 25 25 24 24 24 24 24 24 24 24 24 24 24 23 24 24 23 23 23 23 23 23 23 22 23 24 24 24 26 25 21 21 21 20 20
21 22 22 22 21 23 24 25 25 23 24 23 24 24 24 24 25 26 25 24 24 24 24 24 24 24 24 24 24 23 24 25 26 26 25 23 26 24 22 20 21 21 20
21 22 22 22 22 22 23 25 24 23 24 24 24 23 23 24 24 26 25 23 24 24 24 24 23 24 25 25 24 24 23 24 26 26 25 24 26 23 25 22 19 20 20

GFSMA_925_temp_072.txt.gz
Temp
24 24 23 24 24 25 24 24 24 24 24 25 25 25 25 24 24 25 24 21 21 20 20 19 19 20 20 20 20 20 20 19 19 19 19 20 20 19 19 19 19 19 19
23 24 24 24 24 25 25 25 24 25 26 25 24 24 25 24 24 24 25 22 22 21 21 20 20 20 20 20 20 19 19 20 19 19 20 20 20 20 20 19 19 19 19
23 23 24 24 25 24 23 24 24 25 26 26 25 25 25 24 24 24 25 25 23 22 22 21 21 21 21 20 20 19 19 20 20 20 19 20 20 20 20 19 20 20 20
23 23 24 24 24 24 25 25 26 26 26 26 26 26 25 25 24 24 25 25 24 25 23 23 22 21 21 21 20 20 20 20 20 20 21 21 21 21 21 20 20 20 20
23 23 24 24 24 25 25 26 26 26 26 27 27 26 26 26 26 26 25 25 25 25 25 23 23 22 22 22 22 22 21 21 22 22 22 22 22 22 22 21 21 21 21
23 23 24 23 25 26 26 26 25 26 27 27 28 27 27 27 27 27 27 27 26 25 25 24 24 24 23 23 23 22 22 22 22 22 23 23 23 23 23 23 22 22 21
23 23 24 24 25 26 25 25 25 25 27 26 28 28 28 27 27 27 27 27 27 26 26 26 25 25 25 24 24 23 23 23 23 23 23 23 23 23 23 23 23 22 22
23 23 24 24 25 25 24 25 25 27 27 26 28 28 30 29 29 28 28 27 27 27 27 26 25 25 25 26 25 24 24 24 24 24 24 24 23 23 23 23 23 23 22
23 23 23 25 24 25 26 25 25 26 28 26 25 28 30 30 30 29 28 28 27 28 27 27 26 26 25 26 25 26 25 25 25 25 25 24 24 24 24 24 24 23 23
23 23 23 23 23 25 25 25 25 26 26 28 27 27 26 26 30 30 29 28 28 29 27 28 28 27 26 27 26 26 26 26 26 25 25 25 25 25 25 24 24 23 23
24 24 23 23 23 25 24 25 24 24 26 28 28 28 27 27 26 30 31 30 29 29 29 28 28 28 27 27 27 27 26 26 26 25 25 26 26 26 25 24 24 24 23
24 24 23 23 23 24 24 24 24 24 26 26 27 27 28 28 29 30 31 30 30 29 29 29 29 28 28 28 27 26 26 26 25 25 26 26 26 25 25 24 24 24 24
26 24 23 23 24 23 24 24 24 25 25 26 25 27 27 27 28 28 30 30 31 30 29 29 29 28 29 28 27 26 26 26 25 25 25 26 25 25 25 24 24 24 24
27 25 24 24 24 24 24 24 24 25 25 25 25 25 27 27 27 28 28 29 31 31 29 28 29 29 28 28 27 27 28 26 25 25 25 25 25 25 24 24 24 24 24
27 25 25 24 24 24 24 23 25 24 25 24 25 25 26 27 27 27 27 28 29 31 31 29 30 28 28 28 27 26 27 26 25 25 25 25 25 25 25 24 24 24 24
25 26 25 25 24 24 24 24 25 24 24 25 26 25 25 27 26 27 27 27 28 29 30 30 29 28 26 27 28 26 27 26 27 26 25 25 25 25 24 24 24 23 23
25 25 25 25 25 25 24 24 25 26 24 25 25 25 25 25 26 27 27 27 28 28 29 30 29 28 26 26 26 26 27 28 29 27 26 25 25 25 24 24 23 23 23
25 25 24 25 25 25 25 24 24 26 25 25 25 25 25 25 24 25 26 26 27 27 27 27 28 28 27 26 26 26 27 28 27 28 27 26 25 24 24 24 23 23 23
24 25 25 24 25 25 25 25 25 25 25 25 25 25 25 25 25 26 26 27 27 27 27 27 28 28 28 27 27 27 27 27 29 28 28 26 25 25 24 23 23 23 22
24 25 25 25 25 25 25 25 25 25 25 25 25 25 25 25 25 25 25 25 25 26 27 27 28 28 29 28 27 28 29 29 28 28 28 28 26 25 24 23 22 22 22
24 24 25 25 25 25 26 26 26 25 25 25 25 25 25 25 25 25 26 26 26 26 27 28 29 29 29 29 28 28 28 29 28 28 28 28 28 25 24 24 22 22 22
24 24 24 25 25 26 26 26 25 26 26 25 26 25 25 25 24 24 25 25 25 25 25 26 28 28 28 27 28 28 28 28 28 29 28 28 28 28 26 25 23 22 22
24 24 24 25 25 25 26 26 25 25 26 26 26 26 26 27 25 25 24 25 24 24 24 24 25 25 26 26 25 25 26 26 26 27 27 28 28 28 26 25 24 23 22
24 24 24 24 24 25 25 25 25 24 25 26 26 26 26 26 27 26 25 26 25 25 24 24 23 24 24 25 25 25 25 25 25 26 27 28 28 29 26 24 23 22 22
23 24 24 24 24 24 24 24 24 24 25 24 25 26 26 26 26 26 25 26 26 26 27 26 25 25 24 24 24 25 26 27 28 29 29 29 28 29 27 25 22 22 21
22 23 24 24 24 24 23 23 24 24 25 25 26 25 25 25 25 25 24 25 25 26 26 27 25 25 25 24 24 23 24 26 28 29 29 29 29 29 29 27 25 21 21

GFSMA_925_temp_075.txt.gz
Temp
26 26 26 26 26 26 27 27 25 26 26 27 27 27 27 27 27 26 23 22 22 21 20 20 20 20 20 20 20 19 19 19 20 19 19 20 20 20 20 19 19 19 20
26 26 26 26 26 26 26 26 24 26 26 27 26 26 26 26 26 26 24 23 23 23 22 21 21 21 20 20 20 19 20 20 20 20 20 20 20 20 20 20 20 20 20
25 26 26 26 26 25 25 26 26 27 27 27 26 26 26 26 26 26 27 24 23 24 23 22 22 22 21 21 20 20 21 21 21 21 21 21 21 21 21 20 20 20 20
24 24 26 27 26 26 26 26 26 27 27 26 26 27 27 27 26 26 27 27 26 25 23 23 23 23 22 22 21 21 21 22 22 22 22 22 22 22 22 21 21 20 20
24 25 26 26 25 26 27 27 27 27 27 27 28 27 28 28 27 28 27 27 26 27 26 24 24 24 24 23 23 23 23 23 23 23 23 23 23 23 23 23 22 21 21
24 24 26 25 25 27 26 26 26 26 27 28 28 28 28 29 29 29 28 28 27 26 27 26 25 25 25 24 24 24 24 23 23 23 23 23 23 23 23 23 23 22 22
24 24 26 25 25 27 26 26 26 27 28 28 27 29 29 28 29 29 29 30 28 28 27 27 27 27 26 25 25 25 24 24 24 24 24 24 24 24 23 23 23 23 23
24 25 25 26 26 26 26 26 26 27 28 28 28 28 30 30 30 30 29 29 29 29 28 27 27 26 26 27 26 26 25 25 25 25 25 24 24 24 24 23 23 23 22
25 25 25 26 26 26 26 26 26 27 27 28 27 28 28 29 31 30 29 29 28 29 29 28 28 27 26 27 27 26 26 26 25 25 25 25 25 25 24 24 23 23 22
25 25 25 25 25 26 27 26 27 26 27 29 29 29 27 27 27 31 30 29 29 29 29 30 29 28 27 28 28 27 26 26 25 25 25 26 26 25 25 24 24 23 23
25 25 25 25 25 25 26 26 26 26 28 28 29 29 28 30 29 30 31 31 31 30 30 30 30 30 29 28 29 28 26 26 26 26 26 26 26 25 24 24 24 24 23
26 25 25 24 24 24 25 26 25 25 26 27 27 29 28 27 29 32 31 32 31 31 31 30 30 30 30 29 28 27 26 26 26 26 26 26 26 25 24 24 24 24 24
27 25 25 24 24 24 25 25 25 26 25 27 27 27 29 29 28 31 31 32 32 31 31 31 30 30 30 29 28 28 26 26 26 25 26 26 25 25 24 24 24 24 24
24 26 25 24 25 24 25 25 25 25 26 26 26 26 27 29 28 29 30 31 32 32 30 28 30 31 30 30 28 28 28 27 27 26 26 26 26 24 24 24 24 23 23
26 26 26 25 25 26 25 25 25 26 26 26 26 26 26 28 29 29 29 30 30 32 32 29 31 29 29 30 28 28 28 28 27 26 26 27 26 25 24 24 24 23 23
27 25 26 26 26 25 25 25 26 25 26 26 27 27 26 28 29 29 29 29 29 30 31 32 31 30 28 27 28 27 27 28 28 27 26 27 26 25 24 24 23 23 23
26 26 26 26 26 26 25 25 25 27 25 25 26 27 26 26 27 29 29 29 29 29 30 30 30 30 27 27 27 26 27 28 29 28 27 28 26 26 25 24 23 23 23
26 26 26 25 26 26 26 25 25 27 26 26 26 26 26 26 26 26 27 28 28 28 28 28 28 29 29 29 28 27 28 29 29 29 29 28 27 26 25 24 23 23 23
25 26 26 25 26 26 26 26 26 25 27 26 26 26 26 26 26 27 27 28 29 27 28 28 29 29 29 29 29 28 29 29 29 30 30 28 27 26 26 25 24 23 22
25 25 26 26 26 26 26 25 25 25 26 26 26 27 27 26 26 26 26 26 26 27 28 28 28 29 30 30 30 29 30 30 30 30 30 29 28 26 25 24 24 23 22
25 25 25 26 26 26 27 26 26 26 25 26 27 26 27 27 26 26 26 27 27 27 28 28 29 30 30 30 30 29 29 30 30 30 30 29 28 26 25 25 25 24 23
25 25 25 25 26 26 28 27 27 27 27 26 26 26 27 27 26 25 25 26 25 25 26 27 28 29 28 28 29 29 29 28 28 29 29 29 29 30 26 26 25 25 23
25 25 25 25 25 25 26 27 27 27 27 27 27 27 27 28 27 26 25 25 26 26 25 25 25 25 26 26 26 26 27 27 27 27 27 28 29 29 30 28 26 25 24
24 24 25 25 25 25 25 26 26 26 26 26 26 27 26 26 27 26 26 26 25 24 25 25 24 24 24 24 25 25 25 25 26 27 27 28 29 30 30 27 27 26 25
24 24 24 25 25 25 25 25 25 25 26 25 26 26 26 27 26 26 26 27 26 26 27 27 26 26 26 25 25 25 26 27 28 29 30 31 31 30 30 28 26 25 25
24 24 25 24 25 25 25 24 24 25 26 26 26 25 25 26 26 26 26 26 26 26 27 27 27 26 26 26 25 25 24 25 27 28 29 30 30 30 30 30 26 25 25

GFSMA_925_temp_078.txt.gz
Temp
25 24 25 25 25 24 25 24 26 26 27 26 27 27 27 26 25 25 25 24 23 22 21 20 21 21 20 20 20 20 20 20 20 20 20 19 20 20 20 20 20 20 20
26 26 25 25 25 24 25 25 26 26 26 27 26 26 26 26 26 25 25 24 24 23 23 22 22 22 21 20 20 20 20 21 21 21 21 21 21 21 21 20 20 20 20
24 25 26 26 26 26 25 25 25 26 26 26 26 26 26 26 27 25 25 24 24 23 23 23 23 22 22 22 22 22 22 22 22 22 22 22 22 22 21 21 21 21 20
25 26 24 26 26 26 25 25 25 26 26 27 26 26 26 26 26 27 25 25 24 23 24 24 24 23 23 23 23 23 23 23 23 23 23 23 23 23 22 22 22 21 21
24 25 26 26 26 25 25 26 27 27 26 26 27 27 27 27 27 27 27 27 26 25 24 25 24 24 24 24 24 24 24 23 23 23 23 23 23 23 23 22 22 22 22
24 24 25 26 26 25 26 26 26 27 26 26 27 28 28 28 28 27 28 27 27 26 26 26 25 25 25 25 25 25 24 24 24 24 24 24 23 23 23 23 22 22 22
24 25 25 26 25 25 26 26 27 27 27 27 27 28 29 29 29 29 28 28 28 27 27 27 26 25 26 26 26 26 25 25 25 25 24 24 24 24 23 23 22 22 22
24 24 25 26 25 25 26 26 26 26 27 28 27 27 25 28 29 29 29 29 29 29 28 27 27 26 26 26 27 26 26 26 25 25 25 25 24 24 24 23 23 22 22
25 24 25 25 26 25 26 26 26 25 27 28 28 28 25 25 28 29 29 29 29 29 29 28 28 27 27 26 27 27 26 26 26 25 25 25 25 24 24 23 23 23 22
25 25 25 25 25 25 26 26 26 27 27 27 29 29 28 28 26 27 29 29 29 29 29 28 28 28 28 27 27 27 27 26 26 25 25 25 25 24 24 24 23 23 23
26 25 26 25 25 24 26 26 26 26 26 27 28 29 29 28 29 28 26 29 29 29 30 29 30 29 29 29 28 28 27 26 26 26 26 25 25 24 24 24 23 23 23
25 25 25 25 24 25 25 27 26 26 26 26 27 27 28 28 28 27 28 30 30 30 30 30 30 30 30 29 28 28 27 27 27 26 26 26 25 24 24 24 24 23 23
26 25 25 25 24 24 24 25 26 25 26 26 26 27 26 28 28 29 29 30 30 31 31 30 30 30 30 29 29 28 28 27 27 27 26 26 26 25 24 24 24 23 23
26 25 25 24 24 24 25 25 24 25 26 27 26 26 26 27 27 29 29 29 27 30 30 30 30 30 30 30 29 28 28 28 27 27 27 26 26 25 24 24 23 23 23
25 24 24 24 25 25 25 24 25 25 26 26 26 27 26 27 27 29 29 29 29 26 26 30 30 30 29 29 28 28 27 27 28 27 27 27 27 26 25 24 24 23 23
24 24 24 24 25 25 25 24 25 26 25 25 26 27 27 27 27 28 29 29 29 29 26 30 30 29 29 29 28 27 28 28 28 28 28 27 27 27 25 24 24 23 23
26 23 25 25 25 26 25 25 25 25 25 26 26 26 27 26 27 26 27 28 29 29 28 29 28 28 28 29 28 28 28 28 29 29 29 28 27 27 26 25 24 24 23
26 25 25 25 25 25 25 25 25 25 25 25 26 26 26 26 27 26 26 27 28 28 28 27 28 28 29 29 29 28 28 28 29 29 29 28 28 27 26 25 24 24 23
25 25 26 26 26 25 25 25 25 25 25 25 26 26 26 26 26 26 26 26 27 28 28 27 27 27 28 29 29 29 29 29 29 29 29 29 28 27 26 25 25 24 24
25 25 26 26 25 25 25 25 25 25 25 25 26 26 26 26 26 25 25 26 26 26 27 27 27 28 28 29 29 30 29 29 30 30 30 29 28 28 27 25 25 24 24
25 25 25 25 25 25 26 26 26 25 25 25 25 26 26 27 26 26 26 25 26 26 26 26 27 28 28 28 28 28 28 28 28 28 29 28 28 28 28 26 25 24 24
25 25 25 25 25 26 27 27 27 26 26 25 26 26 26 27 26 26 26 26 26 25 25 25 25 26 26 26 26 27 26 26 26 27 27 27 27 28 28 27 26 25 24
25 25 25 25 25 25 26 27 27 27 26 26 26 26 26 26 27 27 27 26 26 26 25 25 24 25 25 26 26 25 25 26 25 26 26 26 27 28 28 28 27 25 25
24 24 24 24 25 25 25 25 26 26 26 27 27 26 26 26 27 26 26 26 26 26 26 26 26 26 26 27 26 25 25 25 25 25 26 25 28 28 29 29 28 26 26
21 22 23 24 24 24 25 25 25 25 25 26 26 26 26 26 26 26 27 26 26 26 26 26 26 27 27 27 26 25 25 24 24 25 26 28 28 29 30 30 28 27 26
20 21 21 23 24 24 24 25 25 25 25 25 25 25 25 26 26 26 26 26 25 26 26 26 27 27 26 26 26 25 25 24 24 24 25 26 28 28 29 30 29 27 26

GFSMA_925_temp_084.txt.gz
Temp
24 24 24 24 23 24 24 23 24 25 26 26 26 25 24 24 24 24 23 23 22 21 21 21 21 21 20 20 20 20 20 20 20 20 20 20 20 20 20 19 19 19 20
24 24 24 24 24 24 24 24 25 25 25 25 25 25 25 25 25 25 24 23 23 22 22 22 21 21 21 21 21 21 21 21 21 21 21 21 21 21 20 20 19 19 20
24 24 24 24 25 25 25 25 25 26 26 25 25 25 25 25 25 25 24 24 24 23 23 22 22 22 23 23 23 22 22 22 22 22 22 22 22 22 21 21 21 20 20
24 25 24 24 25 25 25 25 26 25 26 26 26 25 25 25 25 25 24 24 24 25 24 24 23 23 24 24 24 23 23 23 23 23 22 22 22 22 22 22 22 21 21
25 24 24 24 25 25 25 25 26 25 25 26 26 26 26 25 25 25 25 25 25 25 25 24 25 25 25 25 24 24 24 24 24 23 23 22 22 22 22 22 22 21 21
24 25 25 25 25 25 25 25 26 25 26 26 26 26 26 26 26 26 26 25 25 25 25 25 25 25 25 25 25 25 25 24 24 24 23 23 23 22 22 22 22 21 21
24 24 24 25 25 25 25 25 25 25 26 26 26 26 27 26 26 26 26 26 26 26 26 26 26 26 26 25 25 25 25 24 24 24 24 24 23 23 22 22 22 22 21
24 24 24 25 25 25 25 25 25 26 26 26 26 25 22 26 27 27 27 26 26 26 26 26 26 27 27 26 26 26 25 25 24 24 24 24 24 23 23 23 23 22 22
24 24 25 25 24 25 25 25 26 26 26 26 26 25 22 22 24 27 28 27 27 27 27 27 27 27 27 27 27 26 26 25 25 25 24 24 24 23 23 23 23 23 23
24 24 24 25 25 25 25 25 25 26 26 26 27 26 26 26 22 23 27 27 27 27 28 27 28 28 27 27 27 27 26 26 26 26 25 24 24 23 23 23 23 23 23
24 24 24 25 25 25 25 25 25 26 26 26 25 26 26 26 26 24 22 27 28 28 28 28 28 28 28 27 27 27 27 27 26 26 25 25 24 24 23 23 23 23 23
25 25 24 25 25 25 25 25 25 25 26 26 26 26 26 26 25 25 22 25 25 29 28 28 28 29 28 28 27 27 27 27 27 26 26 25 25 24 24 23 23 23 23
25 25 25 25 25 25 25 25 25 25 25 26 26 26 26 26 26 25 25 24 25 28 29 29 29 29 29 28 27 27 27 27 27 27 26 26 26 25 24 24 24 23 23
25 25 25 25 24 24 25 25 25 25 25 26 26 26 26 26 26 26 26 25 23 25 28 29 29 29 28 28 27 28 28 27 27 27 26 26 25 25 25 24 24 24 23
25 25 25 25 25 24 24 25 25 25 25 25 25 25 26 26 26 26 26 26 26 23 23 28 28 28 28 27 28 28 28 28 27 27 27 27 26 26 25 25 24 24 24
25 25 25 24 24 24 24 24 24 24 24 25 25 25 26 26 26 26 26 26 27 26 23 27 27 27 28 28 28 28 28 28 28 28 28 28 27 26 26 25 25 24 24
25 24 25 24 24 24 24 24 24 24 24 25 25 25 25 25 26 26 26 26 26 26 25 27 27 27 28 28 28 28 28 28 28 28 28 28 27 26 26 25 25 24 24
25 25 24 24 25 24 24 24 24 24 24 24 25 25 25 25 25 25 26 26 26 25 25 25 26 26 27 27 27 27 28 28 28 28 28 28 28 26 26 26 25 24 24
25 25 25 25 25 25 25 24 24 24 24 25 25 25 24 25 25 26 26 25 25 25 25 25 25 25 26 27 27 27 27 27 27 27 27 27 27 27 26 26 26 25 24
25 25 25 25 25 25 24 24 24 24 24 24 25 25 25 25 25 25 26 25 25 25 25 25 25 25 25 26 25 26 26 27 27 27 27 27 26 26 26 26 26 25 24
24 25 25 24 24 24 24 25 24 24 24 25 24 24 25 25 25 25 25 25 25 25 25 25 24 24 25 25 25 25 25 25 26 27 27 26 26 26 26 26 26 26 25
23 24 24 24 24 24 24 24 24 25 24 24 25 25 25 25 25 25 25 25 25 25 25 25 25 24 25 25 25 25 24 24 23 26 25 25 26 27 27 27 27 27 26
22 23 24 24 24 24 24 24 24 24 24 25 25 25 25 25 25 25 25 25 25 25 25 25 25 25 25 26 26 25 25 24 23 25 24 24 26 26 26 27 27 27 27
19 20 21 23 24 24 24 24 24 24 24 24 24 24 25 25 25 25 25 25 25 25 26 25 25 25 26 26 26 25 25 24 24 25 24 23 25 25 26 26 27 28 28
18 19 19 19 21 22 22 23 23 24 23 24 24 24 24 25 25 25 25 25 25 26 26 25 25 25 26 25 25 25 24 23 22 24 23 23 25 24 26 27 28 28 28
17 17 19 19 19 20 21 21 22 23 23 24 24 24 24 24 25 25 25 25 24 25 25 25 25 25 25 25 25 25 25 23 21 22 24 24 25 24 25 26 27 27 27

GFSMA_925_temp_087.txt.gz
Temp
23 23 23 24 24 24 24 24 24 24 25 25 25 24 24 24 24 23 23 22 21 21 21 21 21 20 20 20 20 20 21 21 21 20 21 20 20 20 20 20 19 19 19
24 24 24 23 24 24 24 24 25 25 25 26 26 25 24 24 24 24 23 23 22 22 21 21 21 21 21 21 21 21 21 22 21 22 22 22 21 21 21 20 20 19 20
23 24 24 24 24 24 25 24 24 24 25 25 25 24 24 24 24 24 24 23 23 23 23 22 22 22 22 22 22 23 22 22 22 22 22 22 22 21 21 21 21 21 20
24 24 24 24 24 24 24 25 25 25 25 24 24 24 24 24 24 24 24 24 23 24 23 23 23 23 23 23 23 23 23 23 22 22 22 22 22 22 21 21 21 21 21
24 24 24 24 25 24 25 25 25 25 25 25 25 25 25 25 25 24 25 24 24 24 24 24 24 24 24 24 24 24 23 23 23 23 23 22 22 22 22 21 21 20 21
24 24 24 24 24 25 25 24 25 25 25 26 26 26 26 26 25 25 25 25 25 25 25 25 25 25 25 25 25 25 24 24 24 23 23 23 22 22 22 22 21 21 20
24 24 24 24 25 25 25 25 25 25 25 25 26 26 26 26 26 26 26 26 26 26 25 25 25 26 25 26 25 25 25 24 24 24 23 23 23 23 22 22 22 21 21
24 24 24 25 25 25 25 25 25 25 25 25 25 24 20 25 26 26 26 26 26 26 26 26 26 26 26 26 26 26 26 25 24 24 24 23 23 23 22 22 22 22 22
24 24 24 25 25 25 25 25 25 25 26 26 25 25 21 21 22 27 27 27 26 26 27 27 27 27 27 27 26 26 26 26 25 25 24 24 24 23 23 22 22 22 22
23 24 24 24 24 24 25 25 25 25 25 25 25 25 25 24 21 23 27 27 27 27 28 28 28 28 27 27 27 27 26 26 26 25 25 25 24 23 23 23 22 22 22
23 24 24 24 24 24 25 25 25 25 25 25 25 25 25 25 24 23 22 26 27 28 28 28 28 28 28 28 27 27 27 26 26 26 25 25 25 24 23 23 23 22 22
23 24 24 25 25 25 25 25 25 25 25 25 25 25 25 25 24 24 21 23 24 28 28 28 28 28 29 28 28 27 27 26 26 26 26 25 25 25 24 23 23 23 23
24 23 24 24 25 25 24 25 25 25 25 25 25 25 25 25 25 24 24 23 23 27 28 29 29 29 29 28 28 27 27 27 26 26 26 26 25 25 25 24 23 23 23
24 24 24 24 24 24 24 24 25 25 25 25 25 25 25 25 25 25 25 24 22 24 26 27 28 28 28 28 27 27 27 27 27 27 27 27 27 26 25 25 24 23 23
25 24 24 24 24 24 24 24 24 24 25 25 25 25 25 25 26 26 26 25 25 22 22 27 27 27 27 27 27 27 28 27 27 27 27 27 27 27 26 25 25 24 23
24 24 24 24 24 24 24 24 24 24 24 24 24 25 25 25 25 26 26 26 25 25 22 26 26 27 27 27 27 27 27 28 28 28 28 28 28 27 26 26 25 24 24
24 24 25 24 24 24 24 24 24 24 24 24 24 24 24 25 25 25 25 26 25 25 24 26 26 26 27 27 27 27 28 28 28 28 28 28 28 28 26 26 25 25 24
25 24 24 24 24 24 24 24 24 24 23 24 24 24 25 25 25 25 25 25 25 25 24 24 25 26 26 26 26 27 27 26 26 27 27 27 27 27 27 26 25 25 24
24 25 24 24 24 24 24 24 24 24 24 24 24 24 24 24 24 25 25 25 25 25 25 24 24 25 25 26 26 26 26 27 27 27 27 27 26 26 26 26 25 25 24
24 23 23 23 24 24 24 24 24 24 24 24 24 24 24 24 24 24 24 25 25 24 24 24 24 24 24 25 25 25 25 26 26 27 27 26 26 26 26 25 25 25 25
22 23 23 23 24 24 24 24 24 24 24 24 24 24 24 24 24 24 24 24 24 24 24 23 23 23 24 24 24 24 24 25 26 26 26 26 26 26 26 26 26 26 26
22 22 23 23 23 24 24 24 24 24 24 24 24 24 24 24 24 24 24 25 24 24 24 23 24 23 24 24 25 24 24 23 22 25 25 25 26 26 27 26 26 26 27
20 21 21 21 22 23 23 24 24 24 24 24 24 24 24 24 24 24 25 25 25 25 24 24 24 24 24 25 25 25 25 24 23 24 24 24 25 26 27 27 26 27 27
20 19 20 20 19 21 23 22 23 23 23 23 24 24 24 24 25 25 25 24 25 25 25 25 25 25 25 25 25 24 24 24 24 24 23 22 25 25 26 27 27 27 28
17 19 18 19 19 19 20 20 22 23 23 23 23 24 24 24 24 24 24 24 25 25 25 25 25 25 25 25 24 24 23 22 21 22 23 22 23 24 25 26 27 27 27
17 17 18 18 19 19 19 20 20 20 21 21 22 23 23 23 23 23 23 23 23 24 24 25 25 25 25 25 24 24 24 21 21 21 23 23 24 23 23 24 25 26 26

GFSMA_925_temp_093.txt.gz
Temp
22 23 23 22 23 24 24 24 24 23 24 24 23 22 22 22 22 22 21 21 21 21 20 20 20 20 21 21 20 21 21 21 21 21 21 21 21 21 21 21 21 20 20
23 23 23 23 23 24 24 24 24 24 24 24 24 23 22 22 22 22 22 22 22 22 22 22 21 22 22 22 22 22 22 22 22 21 21 21 21 21 21 21 21 21 21
23 23 23 23 24 24 24 24 24 24 24 24 24 24 23 23 23 23 22 22 22 23 23 23 23 23 23 23 23 22 22 22 22 22 22 21 21 21 21 21 21 21 21
23 23 23 23 24 24 24 24 24 24 24 24 24 24 24 24 23 23 23 23 23 23 23 23 24 24 24 24 24 23 23 23 23 23 22 22 22 21 21 21 21 21 21
24 24 23 24 24 24 24 24 24 24 24 24 25 24 24 24 24 24 23 24 24 24 23 24 24 24 24 24 24 24 24 24 23 23 23 22 22 22 22 21 21 21 21
24 24 24 24 24 23 24 24 25 25 24 24 26 26 25 24 25 24 24 24 25 25 24 25 25 24 25 25 25 25 25 25 24 24 23 23 23 22 22 22 22 22 21
24 24 24 24 24 23 24 24 24 24 25 25 25 27 26 25 25 25 25 25 25 25 24 25 25 25 25 26 26 26 25 25 25 24 24 23 23 23 22 22 22 22 22
24 24 24 24 24 24 24 25 25 25 25 25 25 25 28 28 27 26 26 26 26 25 26 26 27 27 27 26 26 26 26 25 25 25 24 24 24 23 23 22 22 22 22
23 24 24 24 24 24 24 24 25 25 26 24 24 25 28 28 27 27 26 26 27 26 26 27 27 27 27 27 27 26 26 26 25 25 25 24 24 24 23 23 23 22 22
23 23 23 24 24 24 24 24 24 24 25 25 24 24 24 24 28 29 27 27 27 27 27 27 27 27 28 28 28 27 26 26 26 25 25 25 25 24 24 24 23 23 22
23 23 23 24 24 24 24 25 25 25 24 24 25 24 24 24 23 26 29 29 28 27 27 28 28 27 28 28 28 27 27 26 26 26 26 26 25 25 25 24 24 23 23
22 23 23 24 24 24 24 24 25 25 24 24 24 24 25 26 26 26 27 27 27 28 27 27 27 28 28 28 27 27 27 27 27 27 27 26 26 26 25 25 24 23 23
23 23 24 24 23 24 24 24 24 25 25 24 25 24 24 24 24 25 26 27 27 27 27 27 26 27 27 27 27 28 28 27 27 27 27 27 27 26 26 25 24 24 23
24 24 24 23 24 24 24 24 23 23 24 24 24 25 24 24 24 24 25 26 29 28 27 26 26 26 26 27 27 27 27 28 28 27 27 28 27 27 26 25 25 24 23
23 24 24 24 24 24 24 24 23 23 24 24 23 24 25 24 24 24 24 25 26 29 29 27 28 26 26 26 26 27 27 27 28 27 27 27 27 27 27 26 25 24 23
23 23 23 24 24 24 24 23 23 23 23 23 23 24 24 24 25 24 24 24 25 26 28 27 27 26 26 26 26 26 26 27 27 26 27 27 27 27 27 26 25 24 23
23 23 23 23 23 24 24 23 23 23 23 22 23 23 23 24 24 24 24 24 25 25 27 27 25 26 26 25 26 26 26 25 26 26 26 26 27 27 26 26 25 24 24
23 23 23 23 24 23 23 23 23 22 22 23 23 22 23 23 23 23 24 23 24 24 25 25 26 26 24 24 24 24 25 26 25 26 25 26 27 27 26 25 25 25 24
23 24 24 24 23 23 23 22 22 22 23 23 23 23 23 22 23 24 23 24 25 24 24 24 25 24 24 24 24 25 24 24 25 26 26 26 26 26 26 25 26 26 25
23 23 23 24 24 23 22 22 21 22 23 23 23 23 24 23 23 23 23 23 23 23 24 23 25 25 25 24 23 24 25 25 25 25 25 25 25 26 26 26 26 26 26
22 22 22 22 23 22 22 21 22 21 22 23 23 23 23 24 23 23 23 23 23 23 24 25 25 25 25 26 26 25 25 25 25 24 24 25 26 26 26 26 25 25 26
20 19 19 20 21 20 22 23 23 22 22 22 22 23 23 23 24 23 23 23 23 22 23 24 25 25 24 24 25 24 25 25 26 26 23 25 26 26 26 26 26 26 26
19 20 19 18 18 18 20 22 23 23 22 23 23 23 23 24 23 23 23 24 24 24 23 23 23 23 24 24 24 23 24 24 24 25 24 25 26 26 26 27 25 26 26
18 17 17 18 18 18 20 21 21 22 21 20 20 21 22 23 23 23 23 23 23 23 24 23 23 22 23 23 22 23 22 22 23 24 24 24 26 26 26 25 25 26 26
16 16 16 16 17 16 18 20 20 20 18 19 19 19 19 20 20 20 21 21 22 22 23 23 23 23 23 23 23 21 23 24 26 26 26 24 25 26 25 25 25 26 26
15 15 15 15 15 15 15 17 19 17 19 17 18 19 19 17 18 18 18 19 20 22 21 21 22 22 22 22 23 22 22 24 25 26 26 25 25 25 26 26 26 25 25

GFSMA_925_temp_096.txt.gz
Temp
24 24 24 25 25 25 25 25 25 25 25 25 26 25 25 25 25 26 25 23 22 22 22 21 21 21 21 22 22 22 22 22 22 21 21 21 21 21 21 21 21 20 20
24 24 24 25 25 26 25 25 25 26 27 27 26 26 26 26 25 26 26 24 23 23 23 23 23 23 23 23 23 23 22 22 22 22 22 21 21 21 21 21 21 20 21
23 24 25 25 25 24 25 25 26 26 27 27 26 26 26 26 26 25 26 26 24 24 24 24 24 24 24 23 23 23 23 23 22 22 22 22 22 22 21 21 21 21 21
23 24 25 25 25 25 26 26 27 27 27 28 27 27 27 27 26 26 26 26 26 26 25 24 24 24 24 24 24 24 23 23 23 23 22 22 22 22 22 21 21 21 21
23 25 25 25 24 25 26 27 27 27 27 28 28 28 28 27 27 27 26 26 26 26 26 26 25 25 25 25 25 25 25 24 24 24 23 23 22 22 22 22 22 21 21
23 25 25 24 25 26 26 26 26 27 27 27 29 29 28 28 28 28 28 28 27 26 27 26 26 27 26 26 25 25 25 25 25 24 24 23 23 23 22 22 22 22 22
23 24 25 24 25 26 25 25 27 26 28 27 29 29 29 29 29 29 28 29 28 28 28 27 27 27 27 27 26 26 26 26 25 25 24 24 24 23 23 23 22 22 22
23 24 24 25 25 26 25 25 25 28 28 27 29 30 31 30 30 30 29 29 28 29 29 28 27 27 27 28 27 26 26 26 26 25 25 24 24 24 23 23 23 22 22
24 24 24 25 24 25 26 25 26 26 29 27 26 29 31 31 31 30 29 29 28 29 29 29 28 28 27 28 28 27 26 26 26 26 26 25 25 24 24 24 23 23 23
24 24 24 24 24 26 25 25 26 26 26 28 28 27 27 27 31 32 30 30 29 30 29 30 30 29 28 29 28 27 27 27 26 26 26 26 25 25 25 24 24 24 24
24 24 23 24 24 25 24 25 25 25 27 28 28 28 27 28 28 31 32 31 30 30 30 30 30 30 29 29 29 28 27 27 27 27 27 26 26 25 25 24 24 24 24
24 24 24 24 24 24 24 25 24 25 26 26 27 28 29 30 30 30 31 31 31 30 30 30 30 30 29 29 28 28 27 27 27 27 27 27 26 26 26 25 24 24 23
25 24 23 23 24 23 24 24 24 24 25 26 25 28 27 28 28 29 30 31 31 31 31 30 30 29 30 29 29 28 28 28 27 27 27 27 27 27 26 25 24 24 24
25 25 24 24 24 24 24 24 25 25 25 25 25 25 27 27 27 28 28 30 32 31 30 28 30 30 29 28 27 28 28 27 28 27 27 26 26 26 26 26 25 24 23
26 24 24 24 24 24 24 24 25 24 25 25 26 25 26 27 28 28 28 28 29 32 32 30 31 28 29 29 28 27 28 27 27 27 26 26 27 27 26 26 25 24 23
24 24 24 24 24 24 23 23 25 24 24 25 26 25 25 27 27 27 28 28 28 29 31 30 30 29 27 28 28 27 27 27 27 27 26 26 26 27 26 26 25 25 24
23 23 23 24 24 24 24 23 24 24 24 24 24 24 25 25 26 28 28 28 28 28 29 30 29 29 26 26 26 26 27 27 29 27 27 26 26 26 26 25 25 25 25
23 23 23 23 24 24 24 23 24 25 24 24 24 25 24 25 25 25 26 27 27 27 27 27 28 28 27 26 26 25 27 27 27 28 27 26 26 26 26 25 26 25 25
23 24 23 23 24 24 24 23 23 24 24 24 24 25 24 25 25 26 26 26 27 27 27 27 27 28 28 27 27 27 27 27 28 28 28 28 27 26 26 26 26 26 25
23 24 24 24 24 24 24 24 24 23 24 24 24 24 24 24 25 24 25 25 26 25 26 26 27 28 28 28 27 28 29 29 28 28 28 28 27 27 27 27 27 26 26
23 23 23 24 24 24 24 23 23 23 23 24 24 24 24 24 24 24 24 25 25 25 26 27 28 28 29 29 28 28 28 28 28 28 29 27 28 29 29 29 28 27 26
21 22 22 23 23 24 23 22 23 24 24 24 24 24 24 24 23 24 23 23 23 23 24 25 27 28 27 26 27 27 27 27 28 28 28 28 28 29 29 29 29 27 26
20 20 21 21 19 18 19 21 22 21 24 24 24 24 24 26 24 24 24 23 23 23 23 23 23 24 25 24 24 24 25 26 26 27 26 27 28 28 29 30 28 27 26
19 20 20 19 17 18 19 20 21 21 23 23 23 23 23 23 22 22 23 24 25 24 24 23 23 23 23 23 23 24 24 24 25 27 28 28 29 28 28 29 28 27 26
18 19 19 16 15 17 18 20 20 21 21 21 20 20 20 20 19 20 20 22 24 24 25 24 24 23 23 23 23 22 24 26 27 28 29 29 29 29 28 29 29 28 27
18 19 17 15 15 14 16 18 19 20 20 21 19 18 18 18 18 18 19 19 21 22 21 21 22 22 23 23 24 23 24 25 26 28 28 28 28 28 28 28 29 29 28

GFSMA_925_temp_102.txt.gz
Temp
26 24 24 24 23 26 26 26 26 26 27 28 28 27 27 28 27 26 25 25 24 24 23 23 23 23 23 23 23 22 22 22 22 22 22 21 21 21 21 21 20 20 20
25 26 23 25 26 26 27 27 25 27 27 27 27 28 27 27 27 27 26 26 25 25 24 24 24 24 24 23 23 23 23 23 23 22 22 22 22 21 21 21 21 20 20
24 27 25 27 27 28 27 27 28 28 28 28 27 28 28 27 27 27 27 27 26 26 25 25 25 25 24 24 24 24 24 24 24 23 23 23 22 22 22 21 21 21 21
24 24 25 26 27 27 27 27 28 29 29 28 28 28 28 27 27 28 27 27 27 26 26 26 26 26 25 25 25 25 25 25 24 24 24 23 23 22 22 22 22 21 21
26 26 26 27 27 26 27 27 28 28 29 29 29 29 29 28 28 28 27 28 27 27 27 27 26 26 26 26 26 25 25 25 25 25 24 24 23 23 22 22 22 22 21
25 25 26 26 26 26 27 28 28 28 28 28 29 30 30 29 29 29 28 28 28 28 28 27 27 27 27 27 26 26 26 25 25 25 25 24 24 24 23 23 22 22 22
25 25 26 27 23 26 27 28 27 27 29 29 29 30 30 30 29 30 29 29 29 28 29 28 28 27 27 28 27 27 26 26 26 26 25 25 25 24 24 24 23 23 22
25 25 26 25 27 26 27 27 27 27 29 29 28 28 27 29 30 31 31 30 30 30 29 29 29 28 28 28 28 27 27 26 26 26 26 26 25 25 25 24 24 23 23
25 25 25 25 25 25 26 26 27 27 28 29 29 28 26 26 30 31 30 30 31 31 30 30 29 29 29 28 28 28 28 27 27 26 26 26 26 25 25 25 24 24 23
26 26 25 25 24 23 25 26 27 27 27 28 30 29 29 29 27 28 31 30 30 30 31 30 30 30 30 29 28 28 28 27 27 27 27 26 26 26 25 25 24 24 24
26 26 26 25 25 24 24 27 26 27 26 26 27 30 30 29 30 28 27 30 30 31 31 31 31 30 30 30 29 28 28 28 28 28 27 27 26 26 26 25 25 24 24
25 26 25 25 25 24 25 25 26 26 26 26 27 26 25 23 23 23 24 28 30 32 32 32 31 30 29 28 28 28 28 28 28 28 27 27 27 27 26 26 25 24 23
25 25 25 25 25 25 25 25 25 25 26 26 26 26 25 27 28 26 27 22 24 28 27 26 24 24 24 24 23 28 28 28 27 27 27 27 27 26 27 26 26 25 24
23 24 24 25 25 25 25 25 25 26 26 26 26 26 26 26 26 29 29 23 22 21 22 22 26 24 24 25 26 27 28 28 28 28 27 27 27 26 26 26 26 25 24
23 24 24 24 25 25 26 25 26 26 25 25 26 26 27 27 27 27 29 29 29 20 17 28 23 23 26 25 26 26 28 28 28 28 28 27 27 26 26 26 26 26 25
24 23 24 24 25 25 25 25 25 25 25 26 26 25 26 27 26 27 27 28 28 29 21 26 24 25 26 26 26 27 28 28 28 28 29 28 28 27 27 27 27 26 26
24 23 24 25 25 25 25 25 25 24 24 25 25 25 25 26 26 26 26 27 27 28 27 25 26 26 26 26 28 28 28 28 29 29 29 28 28 27 28 27 27 27 27
24 24 24 24 24 24 25 25 24 25 25 25 25 25 25 26 26 26 26 26 26 27 27 27 27 28 28 29 29 28 28 28 29 29 29 29 28 28 28 28 28 27 27
25 24 24 24 24 24 24 24 24 24 24 25 25 25 25 26 25 25 25 26 26 26 27 27 27 28 28 28 28 28 28 29 29 29 29 29 28 29 29 29 28 28 27
23 24 24 24 24 24 24 24 24 24 24 25 25 26 26 26 25 25 25 25 25 25 26 26 26 27 28 27 27 27 27 27 27 28 28 28 28 28 28 29 29 29 27
23 24 24 24 23 23 23 24 25 23 24 25 25 25 25 25 25 25 25 25 25 24 24 24 24 25 25 25 25 25 25 25 26 26 27 27 27 28 28 29 29 29 29
22 23 24 23 22 21 21 22 24 24 24 24 24 24 24 24 24 24 25 25 24 24 24 24 24 24 24 24 24 24 23 24 24 25 25 25 26 27 27 29 29 30 29
22 23 22 21 21 20 20 22 23 23 23 24 24 23 24 23 23 23 24 24 24 24 23 23 23 23 23 23 23 23 23 23 23 24 24 24 26 26 27 28 29 30 29
21 21 20 19 20 20 20 21 22 23 23 23 22 22 21 21 21 22 23 23 23 24 24 23 23 23 23 23 23 23 23 23 23 24 25 25 26 27 27 27 28 28 28
20 20 19 18 18 19 20 21 21 22 22 20 19 20 20 20 20 20 21 21 21 22 22 21 21 22 23 24 24 23 23 22 23 23 24 24 25 25 26 27 27 27 27
19 19 18 18 16 17 18 19 20 21 20 19 18 19 19 19 20 20 20 20 20 20 21 22 23 24 24 25 25 25 24 23 23 23 24 24 24 24 24 25 26 26 26

GFSMA_925_temp_105.txt.gz
Temp
24 23 25 26 25 25 24 25 26 25 26 27 27 28 26 26 27 26 26 25 25 24 24 24 24 23 23 23 23 22 22 22 22 21 21 21 21 21 21 21 20 20 20
24 24 24 25 24 24 24 26 27 26 27 27 27 28 27 26 27 27 26 26 25 25 25 25 24 24 24 24 23 23 23 23 23 22 22 22 22 21 21 21 21 21 20
25 25 24 24 25 25 24 27 27 27 27 27 27 27 27 27 26 27 27 26 26 26 25 25 25 25 25 24 24 24 24 24 23 23 23 23 22 22 21 21 21 21 21
25 25 25 26 25 26 25 26 26 27 27 27 27 27 27 27 27 26 26 26 27 26 26 26 25 25 25 25 25 25 25 24 24 24 24 23 23 22 22 22 22 21 21
25 25 25 25 26 26 26 27 27 28 28 28 28 28 28 28 27 27 27 26 27 27 27 27 26 26 26 26 25 25 25 25 25 25 24 24 23 23 23 22 22 21 21
25 25 25 25 26 26 27 27 27 28 28 29 28 29 28 28 28 28 28 27 27 27 27 27 27 27 26 26 26 26 25 25 25 25 25 24 24 24 24 23 23 22 22
25 25 25 26 26 26 26 26 27 27 28 28 29 28 29 29 29 28 28 28 28 28 27 28 28 27 27 27 27 26 26 26 26 26 25 25 24 24 24 24 23 23 23
25 25 25 25 24 25 26 27 27 26 27 29 28 27 24 28 29 29 28 29 29 29 28 28 28 28 28 28 27 27 27 27 26 26 26 25 25 24 24 24 24 23 23
25 25 25 25 25 26 26 26 26 26 26 27 28 28 23 24 26 30 30 29 29 29 29 29 29 28 28 28 27 27 27 27 27 27 27 26 26 25 25 24 24 23 23
26 25 25 25 25 25 26 25 25 26 26 26 27 28 28 27 24 25 29 30 30 30 29 28 28 24 25 24 25 25 26 27 28 27 27 27 26 26 26 25 24 24 23
25 26 25 25 25 25 26 25 25 26 26 26 26 27 27 25 24 21 22 25 28 25 24 25 24 25 25 23 25 24 23 25 27 27 27 27 27 26 26 25 25 24 23
25 25 26 25 24 24 25 25 25 25 26 26 26 26 27 25 23 23 20 21 22 24 23 25 25 24 25 25 27 26 24 25 24 27 27 27 27 26 26 26 25 24 24
24 25 25 25 25 25 25 25 25 25 26 25 26 26 27 26 25 23 23 22 20 23 24 25 27 28 29 28 29 27 26 26 26 27 27 27 27 26 26 25 25 25 24
24 24 24 24 24 24 25 25 25 25 25 26 26 25 26 27 26 25 24 22 19 23 23 28 26 28 27 26 26 27 26 27 26 27 27 27 27 27 26 26 26 26 25
25 25 24 24 24 24 25 25 25 25 25 26 26 25 26 26 26 25 25 24 24 19 19 24 25 27 27 27 26 28 27 27 26 28 28 28 28 27 27 27 27 26 26
24 24 24 24 24 25 25 25 25 25 25 25 26 25 25 26 26 26 26 26 26 25 20 25 25 27 27 27 27 27 27 27 27 28 28 28 28 27 27 27 27 27 26
24 24 24 25 24 25 25 25 25 25 25 24 25 25 25 25 25 25 26 25 26 26 25 26 26 26 27 26 27 28 28 27 28 28 28 28 28 28 28 27 27 27 27
24 24 24 24 24 24 24 24 24 24 24 24 24 25 25 25 25 25 25 25 25 25 25 25 26 26 26 26 26 27 27 27 27 27 27 28 27 27 28 27 28 27 27
24 24 24 24 24 24 24 24 24 24 24 24 24 25 25 25 25 25 25 25 25 25 25 24 25 26 26 25 26 26 26 26 26 26 27 27 27 27 27 27 27 28 28
23 24 24 24 24 23 23 23 24 24 24 24 24 24 25 25 24 25 25 24 24 24 24 24 24 25 25 25 25 24 25 25 25 26 27 27 27 27 27 27 27 28 28
23 23 23 23 23 23 22 23 24 24 23 24 24 24 24 24 24 24 24 24 24 24 24 24 24 24 24 24 24 23 23 24 25 25 25 26 26 26 27 27 27 28 28
22 22 23 22 23 21 21 22 23 23 24 23 23 23 23 23 23 24 24 24 24 24 23 23 23 22 23 23 23 23 23 22 22 24 23 24 25 25 26 27 27 28 28
21 21 22 22 22 21 21 21 22 23 23 23 23 23 23 23 23 23 23 24 24 23 23 22 22 23 22 22 22 22 22 22 22 23 23 22 24 25 25 26 26 27 27
21 21 20 21 21 20 21 21 21 22 21 21 22 22 22 21 21 21 22 22 22 22 22 21 21 21 21 22 22 22 22 22 22 23 23 22 24 24 24 25 26 26 25
19 19 19 19 19 19 20 21 21 21 20 19 20 20 20 20 20 20 21 21 21 21 21 21 22 22 22 23 22 22 22 21 21 22 23 23 23 24 24 24 25 24 25
19 18 18 18 18 18 18 19 19 20 19 18 18 18 19 19 19 20 20 20 20 20 21 22 22 22 22 22 22 23 22 22 22 21 23 22 23 23 23 24 24 24 24

GFSMA_925_temp_111.txt.gz
Temp
23 23 23 23 23 23 23 24 24 25 25 25 26 25 24 24 24 24 24 24 24 24 23 23 22 22 22 22 22 22 21 21 21 22 21 21 21 21 21 21 21 20 20
23 23 23 23 24 24 24 25 25 25 25 25 26 26 26 25 25 25 25 25 24 24 24 24 23 23 23 23 23 23 23 23 23 23 22 22 22 21 21 21 21 21 21
23 24 24 25 25 25 25 26 26 26 25 25 26 26 26 25 26 26 26 25 25 25 25 24 24 24 24 23 23 23 23 23 23 23 23 23 23 22 22 22 22 22 22
24 24 25 25 26 25 26 26 26 27 26 26 26 26 26 25 26 26 26 26 26 26 26 25 25 25 25 24 24 24 24 23 23 23 23 23 23 23 23 22 23 22 22
24 24 25 25 25 25 25 26 25 26 27 27 27 26 26 26 26 26 26 26 26 26 26 26 26 26 25 25 24 24 24 24 24 23 23 23 23 23 23 23 23 23 23
24 24 25 25 25 25 25 25 26 26 26 27 27 26 26 26 26 26 26 26 26 26 26 26 26 25 25 25 25 25 25 25 24 24 24 23 23 23 23 23 23 23 23
24 24 25 25 24 25 25 26 26 26 27 26 26 26 26 27 27 26 27 26 26 25 26 26 26 26 26 26 25 26 26 26 26 25 24 24 24 23 23 23 23 23 23
24 25 25 25 25 25 26 26 26 26 26 26 26 25 21 25 26 26 26 26 26 26 26 26 26 27 27 27 27 27 26 27 26 26 26 25 24 24 23 24 23 23 22
25 25 25 25 25 25 25 25 25 26 25 25 26 25 21 22 22 24 25 26 26 26 27 27 27 27 27 28 27 27 27 27 27 26 26 25 25 25 24 24 24 23 22
24 25 25 25 25 25 25 25 25 26 25 25 25 26 26 24 22 21 23 24 25 26 26 26 27 28 27 27 26 27 26 27 27 26 26 25 25 24 24 24 24 23 23
24 24 24 25 24 25 25 25 25 25 25 26 25 25 25 25 24 22 21 23 24 25 25 26 26 27 26 26 26 27 27 27 27 27 26 26 25 24 24 23 24 24 23
24 24 24 24 24 25 25 25 25 25 25 25 25 25 25 25 24 23 20 20 21 25 25 26 26 26 26 27 27 26 27 28 27 27 26 26 26 25 25 24 24 24 24
24 24 24 25 24 24 25 25 24 25 25 25 25 25 25 25 25 24 23 21 20 23 25 27 26 26 27 27 26 26 26 27 27 26 27 27 26 26 27 25 25 25 24
24 24 24 24 24 24 24 24 24 24 25 24 24 24 25 25 25 25 24 23 20 20 23 25 27 27 27 26 26 26 27 26 26 27 27 27 28 28 27 26 26 25 25
24 24 24 24 24 24 24 24 24 24 24 24 24 24 24 25 25 25 25 24 23 19 19 26 26 27 26 26 26 26 27 27 27 26 26 26 27 27 27 27 26 26 26
24 24 24 23 24 24 24 24 24 24 24 24 24 24 23 24 24 24 24 24 23 22 20 25 26 26 26 26 25 26 26 26 26 26 26 26 27 27 27 27 26 26 26
23 23 23 23 23 23 24 24 24 24 24 24 24 24 24 24 24 24 24 24 24 24 22 24 25 25 25 25 25 26 25 25 25 25 25 25 26 26 27 27 27 26 26
23 23 23 23 23 23 23 24 24 24 24 24 24 24 24 24 24 24 24 24 24 24 23 23 24 24 25 24 25 25 26 26 26 25 25 25 25 25 25 25 25 26 27
23 23 23 23 23 23 23 23 24 23 24 23 23 23 24 24 24 24 24 23 23 23 23 22 23 23 24 24 24 24 24 25 25 24 24 24 24 24 25 25 25 26 27
23 23 23 23 23 23 23 23 23 23 24 23 23 23 23 24 24 24 24 24 23 23 23 22 22 22 22 23 23 22 23 23 24 24 23 24 24 24 25 25 25 25 26
21 22 22 22 23 23 23 22 23 23 23 23 23 23 23 24 24 23 23 23 23 23 22 22 22 22 22 22 21 21 21 22 23 23 23 24 24 24 24 24 25 24 24
21 21 22 22 22 22 22 23 23 22 22 23 22 23 22 22 23 23 23 23 23 22 21 21 21 20 21 20 20 20 20 20 20 22 21 23 23 23 24 24 23 24 23
20 20 21 21 21 22 22 22 22 22 21 23 23 22 22 22 22 22 21 20 22 21 21 21 20 20 20 20 20 21 20 20 20 20 20 22 22 23 24 23 22 23 23
20 20 20 19 20 20 21 21 21 22 23 21 22 21 20 21 21 21 21 20 20 20 20 20 20 20 19 20 20 20 20 21 21 20 21 20 21 22 23 22 22 22 22
19 19 19 19 20 20 19 19 20 20 20 19 18 18 19 20 20 20 20 20 19 20 20 19 19 19 19 20 21 21 20 21 20 19 19 18 19 20 22 21 21 22 21
18 18 17 17 18 19 19 19 19 19 19 19 18 18 19 19 19 20 20 20 20 19 19 19 19 19 19 18 19 19 19 19 18 17 16 16 18 17 18 20 20 19 19

GFSMA_925_temp_114.txt.gz
Temp
23 23 23 24 24 24 24 24 24 25 25 25 25 25 24 24 24 24 23 23 22 23 22 22 22 22 22 22 22 22 22 22 22 22 22 22 21 21 21 21 21 21 20
23 23 23 24 24 24 25 25 25 25 25 26 26 26 25 24 25 25 24 24 24 24 24 23 23 23 23 23 23 22 22 22 23 23 22 22 22 22 22 22 22 21 21
23 23 23 24 24 24 25 25 26 26 26 26 26 26 25 25 25 25 25 25 25 25 24 24 24 23 23 23 23 23 23 23 23 23 23 23 23 22 22 23 23 22 22
23 23 24 24 25 25 26 26 26 26 26 26 26 26 25 25 25 25 25 25 25 25 25 24 24 24 24 24 24 24 24 24 24 24 23 23 23 23 23 23 23 22 23
24 24 24 25 25 25 26 26 26 26 27 26 26 26 26 25 26 26 25 25 25 25 25 25 25 25 25 25 25 25 24 24 25 24 24 24 23 23 23 23 23 23 23
24 24 25 25 25 25 26 26 26 26 26 27 27 26 26 26 26 26 25 26 25 25 25 25 25 26 25 26 25 25 25 25 25 25 25 24 24 24 23 23 22 23 23
24 24 25 25 25 25 25 26 26 25 26 27 26 26 26 26 26 26 26 26 26 26 26 27 27 27 27 26 26 26 26 25 25 25 25 25 25 25 24 23 22 22 23
24 24 24 25 25 25 25 25 26 25 25 26 25 24 22 24 26 26 27 26 26 27 26 27 27 27 27 26 26 25 26 25 25 25 25 25 24 24 24 24 23 22 22
24 24 24 24 24 25 25 26 26 26 25 25 25 25 22 23 22 25 25 26 26 27 27 27 27 26 26 25 25 25 25 25 25 25 25 25 25 24 24 24 24 23 22
24 24 24 24 24 25 25 25 25 26 26 25 25 25 25 24 23 24 25 25 25 26 27 27 26 25 25 25 25 25 25 25 26 26 25 25 26 25 25 24 24 23 23
24 24 24 24 24 25 24 24 25 25 26 25 25 25 25 24 24 22 23 23 26 26 26 27 26 25 26 26 25 25 25 26 26 26 26 26 26 26 26 25 24 24 23
24 24 24 24 24 24 24 24 24 25 25 25 25 25 25 24 23 23 21 21 21 26 27 26 26 25 26 26 25 26 25 25 26 26 27 27 27 27 27 26 25 25 24
24 24 24 24 24 24 24 24 24 24 24 25 25 25 25 25 24 23 23 21 20 24 26 27 27 27 26 26 26 25 26 25 26 26 26 26 27 27 27 27 26 26 25
24 24 24 24 24 24 24 24 24 24 24 24 24 25 25 25 24 24 24 23 22 21 23 25 27 26 26 26 26 26 27 27 26 26 26 26 27 27 26 26 26 26 25
23 23 24 24 24 24 24 23 23 24 24 24 24 24 24 24 24 24 24 24 23 22 22 25 26 26 26 26 26 26 26 26 26 25 26 26 26 26 26 26 26 26 25
23 22 23 23 23 23 23 23 23 23 23 24 24 24 24 24 24 24 23 23 23 22 22 24 25 25 25 25 25 25 25 25 25 26 26 26 26 26 26 26 26 26 26
23 23 22 23 23 23 23 23 23 23 23 23 23 24 23 24 24 24 23 23 23 23 21 23 24 25 25 24 24 24 24 24 24 25 25 25 24 24 24 24 25 26 26
23 23 23 23 22 22 23 23 23 23 23 23 23 23 23 23 23 23 23 23 23 23 22 21 23 23 23 24 24 24 24 24 24 24 24 24 24 24 24 24 24 24 25
22 23 23 23 23 23 23 23 23 23 23 23 23 23 23 23 23 23 23 23 23 23 22 22 22 22 23 23 24 24 24 24 24 24 24 24 24 24 24 23 23 23 23
21 22 22 22 22 22 22 22 23 23 23 23 23 23 23 23 23 23 23 22 22 22 22 22 22 21 22 22 22 22 22 23 24 23 23 23 23 23 23 23 22 22 23
21 22 23 23 23 23 22 22 22 22 22 22 22 23 23 23 23 23 23 22 22 22 21 20 20 21 21 21 20 20 20 21 23 22 23 22 24 24 23 22 22 22 23
19 20 21 21 21 21 22 22 22 22 22 22 21 22 22 22 21 22 23 22 23 23 22 20 20 20 20 20 20 20 20 20 20 21 21 21 22 22 20 20 21 22 22
19 19 20 20 20 21 21 22 22 22 21 21 22 21 21 20 21 19 21 21 21 21 19 20 20 19 20 20 20 21 20 19 19 19 21 20 22 22 20 20 20 20 21
19 19 19 19 19 19 20 21 21 21 21 21 22 22 21 21 20 20 20 20 20 20 20 20 20 19 19 20 20 20 20 19 18 19 20 19 19 21 19 19 19 20 20
19 18 18 18 19 19 19 20 20 20 20 21 19 19 19 19 19 19 20 19 19 19 18 19 18 18 19 20 20 20 21 20 18 16 17 17 17 19 20 17 18 17 18
18 18 17 17 18 18 18 19 19 19 18 17 17 18 18 18 19 19 19 19 19 18 17 17 17 17 18 18 19 19 19 19 16 16 14 14 15 16 17 17 17 17 17

GFSMA_925_temp_117.txt.gz
Temp
23 23 23 23 23 24 24 24 24 24 24 24 24 23 23 23 22 23 22 23 23 23 23 22 22 22 22 22 22 22 22 22 22 22 22 22 22 22 22 22 21 21 21
23 23 23 23 24 25 25 25 25 25 24 25 25 25 23 23 24 24 23 23 24 23 23 23 23 23 23 23 23 23 23 23 23 23 23 23 23 23 22 22 22 22 21
23 23 23 24 24 25 25 25 26 26 25 26 26 25 24 25 25 25 24 23 23 24 24 24 24 24 24 24 24 24 23 23 24 23 24 24 23 23 23 23 22 22 22
23 23 24 24 24 25 25 25 25 25 25 26 25 25 25 25 25 25 25 24 24 24 25 25 25 25 25 24 24 24 24 24 24 24 24 24 24 23 23 23 23 22 22
23 24 24 24 24 24 24 24 26 26 26 26 26 25 26 25 25 25 25 25 25 25 25 25 25 25 25 25 25 25 25 25 24 24 24 24 24 24 24 23 23 22 22
23 24 24 24 25 24 24 25 26 26 25 25 27 26 25 25 25 25 25 25 26 26 26 26 26 25 26 25 25 25 24 25 24 24 24 24 24 25 24 24 23 22 22
24 24 24 25 25 25 25 25 25 24 25 25 26 26 25 25 25 25 25 25 26 26 26 26 26 25 25 26 26 25 25 24 24 24 24 24 24 24 25 24 24 23 22
24 24 24 24 25 25 25 26 26 25 25 24 26 26 28 27 26 25 26 26 26 26 26 26 25 25 26 26 26 25 25 24 24 25 24 24 24 24 24 24 24 23 23
24 24 24 24 25 25 24 25 25 26 26 24 25 26 28 29 27 26 25 25 27 25 25 26 26 25 26 25 25 24 25 24 25 25 24 25 24 24 25 25 25 24 23
24 24 24 24 24 25 25 24 24 25 25 26 24 24 25 25 29 29 26 26 25 26 25 25 25 24 25 24 25 25 25 25 25 25 25 25 25 26 26 25 25 25 24
24 24 24 24 24 24 24 24 25 25 24 25 25 24 24 24 24 27 29 28 26 26 26 25 25 25 25 26 24 25 25 25 25 26 25 26 26 26 27 27 26 26 25
23 24 24 24 24 24 24 24 24 24 24 25 24 24 25 26 26 26 27 26 26 27 25 25 25 25 25 26 25 26 26 25 26 26 25 26 27 27 26 26 26 26 26
23 23 24 24 24 24 24 24 24 24 24 24 25 24 23 24 24 24 25 26 26 26 26 25 25 26 26 26 26 26 26 26 26 25 26 26 26 27 27 26 26 26 25
23 23 24 24 24 24 24 24 23 23 23 23 24 24 23 23 23 24 25 26 28 27 26 25 25 25 26 25 26 26 25 25 25 25 25 25 26 27 27 26 26 26 26
22 23 23 23 23 23 23 24 23 23 23 23 23 24 24 23 23 23 23 24 26 28 28 27 27 25 24 24 24 24 24 25 25 25 25 25 25 26 26 26 25 25 25
23 22 23 23 23 23 23 23 23 23 23 23 23 24 23 23 23 23 23 23 24 25 27 26 26 24 24 24 24 23 24 25 25 24 24 24 25 25 25 24 24 25 25
22 22 23 23 22 22 22 23 23 23 23 23 23 23 23 23 23 24 23 23 23 23 25 26 24 24 23 23 23 23 24 24 24 24 23 23 23 24 24 24 25 25 25
22 21 22 22 21 21 22 22 22 22 23 23 23 23 23 23 22 23 23 23 23 23 23 24 24 24 23 23 23 23 23 24 23 24 23 23 23 23 23 23 23 24 24
22 22 22 22 21 21 21 21 22 22 23 23 23 22 22 22 22 23 23 23 23 23 22 23 23 23 23 22 22 22 22 22 23 23 23 22 22 22 22 22 23 23 23
22 21 22 22 21 21 21 22 23 23 23 22 23 22 22 22 23 22 23 23 23 23 22 22 23 24 23 22 22 23 24 23 23 23 23 22 22 21 21 21 22 22 22
21 21 20 21 21 21 21 22 21 20 21 21 21 23 22 22 23 23 22 22 23 23 23 22 22 23 22 23 22 23 23 23 22 21 23 24 23 21 19 20 20 21 21
20 19 20 21 21 20 20 20 21 21 20 20 21 21 20 22 22 22 22 22 22 22 22 22 22 22 22 22 22 22 22 23 25 21 21 23 22 20 18 17 19 20 20
19 20 19 19 19 19 20 21 21 21 21 20 19 20 20 21 21 21 21 21 21 21 21 20 21 21 20 19 19 20 20 21 22 19 20 22 21 21 18 15 18 19 20
19 19 19 19 19 19 19 20 20 20 19 20 20 20 19 20 21 21 20 19 19 19 19 19 18 18 19 20 19 19 19 19 18 18 19 23 20 21 19 15 17 18 18
19 18 18 17 17 18 18 19 19 19 19 19 20 19 19 19 19 19 19 19 18 18 18 19 19 18 18 19 20 20 21 22 23 19 16 17 18 19 20 18 16 15 16
18 17 16 16 17 17 18 18 18 17 17 17 17 18 18 18 19 19 19 18 18 17 17 16 16 17 18 18 19 20 18 21 21 20 14 16 18 18 20 17 15 14 14

GFSMA_925_temp_123.txt.gz
Temp
25 26 25 27 27 28 28 28 28 28 28 28 28 28 28 28 28 28 25 25 24 24 24 23 23 23 23 23 23 23 23 23 23 23 23 23 23 23 23 23 23 22 22
26 26 26 27 28 28 28 28 28 28 29 28 28 28 28 28 28 28 26 25 25 25 25 24 24 24 24 24 24 24 24 24 24 24 23 24 24 23 23 23 23 23 22
25 26 27 27 27 26 26 27 27 28 30 29 28 28 28 28 27 27 28 27 26 26 26 25 25 25 25 25 25 25 24 24 24 24 24 24 24 24 23 23 23 23 22
25 25 27 28 27 27 28 29 29 30 30 30 29 30 29 29 27 27 28 29 29 28 28 27 26 26 26 26 26 25 25 25 25 25 24 25 24 24 24 23 23 22 22
25 26 27 27 26 29 29 29 30 30 30 30 30 30 30 29 28 29 28 28 29 29 29 28 27 27 27 27 26 26 25 25 25 25 25 25 25 24 24 23 23 22 22
25 25 27 27 26 29 29 27 28 29 30 31 32 31 31 30 30 30 30 29 30 29 29 29 28 28 28 27 27 26 26 25 25 25 26 26 25 25 24 23 23 23 22
25 25 27 26 26 27 26 28 28 28 30 29 31 31 31 30 30 30 30 31 31 30 31 30 29 29 28 28 27 26 26 25 25 25 25 26 25 25 24 24 24 23 22
25 26 26 27 26 28 28 28 27 27 31 30 29 32 32 31 31 31 31 31 31 31 31 31 30 29 28 29 27 26 26 25 25 25 26 25 25 25 25 24 24 23 23
25 25 25 25 26 27 27 27 27 28 24 30 29 30 31 29 30 32 31 31 31 31 31 31 30 29 28 28 28 26 25 25 25 25 26 25 25 26 26 25 25 24 24
26 26 26 25 25 27 27 27 28 27 28 29 30 31 29 29 31 22 27 21 29 30 31 30 31 30 28 28 28 27 26 26 25 25 26 25 25 26 26 26 25 25 24
26 26 26 25 25 26 26 26 26 27 28 28 30 28 30 30 31 31 30 21 24 28 31 31 31 30 29 27 28 27 26 25 25 25 25 25 25 26 26 26 26 25 25
26 26 26 25 25 26 25 26 26 26 26 26 27 28 30 30 30 30 32 32 27 31 27 31 30 30 29 29 28 27 26 26 26 25 25 25 25 26 26 25 25 24 24
26 26 25 26 26 25 25 25 25 25 26 27 26 27 29 30 30 30 31 31 32 32 32 30 29 28 29 29 27 27 26 26 25 25 25 25 25 26 26 26 25 25 25
27 26 25 25 25 25 25 25 25 26 27 27 26 26 27 29 30 30 30 30 31 31 31 29 29 30 27 29 27 27 25 25 26 25 25 25 25 25 24 24 24 25 25
26 25 25 25 25 25 25 25 25 26 26 26 26 27 26 28 29 30 30 30 30 30 31 31 31 29 27 28 27 27 27 26 26 25 25 24 24 24 23 23 23 24 24
24 25 24 25 25 25 25 25 26 26 26 26 27 27 27 27 28 29 29 29 29 29 30 30 30 29 27 27 27 26 27 27 25 24 25 24 24 23 23 23 24 24 24
24 24 24 24 24 24 24 24 24 25 26 25 26 26 26 25 26 28 28 28 29 29 29 29 28 27 26 26 26 25 26 26 25 24 24 24 23 23 23 23 23 23 24
23 23 24 24 24 24 24 23 23 25 25 25 25 26 26 26 26 25 26 26 26 26 26 27 27 27 26 26 26 25 25 26 23 23 24 23 23 22 22 22 22 23 23
24 25 23 23 24 24 24 25 24 24 25 25 26 26 26 26 26 26 24 25 26 25 24 23 24 25 25 24 26 26 26 27 25 24 23 23 22 22 21 21 21 21 22
25 25 24 24 24 25 25 24 24 24 24 24 24 24 24 24 24 24 24 24 23 24 24 23 23 23 25 24 22 24 25 23 22 22 21 22 22 21 21 20 20 20 20
25 25 25 25 24 24 25 25 24 24 24 24 24 23 24 24 23 24 23 23 23 22 23 21 23 23 24 23 23 24 25 26 23 22 21 21 22 20 18 20 19 20 20
23 24 24 24 23 24 23 22 22 23 24 24 24 24 23 23 23 23 23 22 22 22 22 22 23 23 23 22 22 23 25 23 24 23 23 22 22 21 18 19 19 19 19
22 22 22 22 21 21 21 21 21 21 22 23 23 22 22 23 22 21 21 21 21 21 21 21 21 21 21 19 21 22 23 22 22 24 23 22 22 20 18 17 17 18 19
21 21 21 20 20 19 19 19 19 19 21 20 21 21 20 21 20 20 20 20 20 20 21 20 20 19 19 20 20 21 22 22 22 23 22 22 22 20 17 16 17 17 17
20 19 19 19 18 18 18 18 19 19 19 20 20 20 20 20 20 20 20 19 19 19 20 20 20 20 20 20 21 21 23 22 22 21 21 21 23 22 20 16 17 17 17
18 18 18 17 17 16 16 17 18 18 18 19 19 19 19 18 19 19 19 20 20 20 19 18 18 19 19 18 19 19 20 21 24 21 19 19 23 22 23 19 18 18 17